493  
ASHW40 PHFO 210010  
RWRHI  
 
WEATHER ROUNDUP FOR HAWAII  
NATIONAL WEATHER SERVICE HONOLULU HI  
200 PM HST WED AUG 20 2014  
 
THIS IS AN AUTOMATED REPORT THAT HAS NOT BEEN QUALITY CONTROLLED.  
 
NOTE..."FAIR" INDICATES FEW OR NO CLOUDS BELOW 12,000 FEET WITH NO  
SIGNIFICANT WEATHER AND/OR S TO VISIBILITY
.  
 
* - THESE SITES REPORT LIMITED FIELDS  
 
HIZ001>004-210100-  
KAUAI-NIIHAU-  
 
CITY SKY/WX TMP DP RH WIND PRES REMARKS
 
LIHUE APT MOSUNNY 84 69 60 NE13 29.99F  
PORT ALLEN* N/A 86 N/A N/A E14G22 N/A  
POIPU* N/A 84 N/A N/A NE9G17 N/A  
PRINCEVILLE* NOT AVBL  
KOKOLE POINT* NOT AVBL  
MOLOAA DAIRY* NOT AVBL  
WAIMEA HTS* NOT AVBL  
PUU OPAE* NOT AVBL  
PUU LUA* NOT AVBL  
MAKAHA RIDGE* NOT AVBL  

 
 
HIZ005>011-210100-  
OAHU-  
 
CITY SKY/WX TMP DP RH WIND PRES REMARKS
 
HONOLULU MOSUNNY 88 65 46 E15G22 29.95F HX 90  
KALAELOA PTSUNNY 86 69 56 SE10G18 29.96F HX 90  
KANEOHE MCB CLOUDY 84 70 61 NE10 29.97F  
WHEELER FIELD FAIR 85 66 52 E15 29.97F  
BELLOWS* NOT AVBL  
KAHUKU* NOT AVBL  
WHEELER* NOT AVBL  
WAIANAE HARBOR NOT AVBL  
DILLINGHAM* N/A 86 68 54 N5G16 N/A  
KAHUKU TRN* N/A 82 70 65 E9G23 N/A  
KAWAILOA* NOT AVBL  
KII* N/A 82 72 69 E12G18 N/A  
MAKUA RANGE* N/A 86 68 54 W7 N/A  
OAHU FOREST NW NOT AVBL  
SCHOFIELD BRK* N/A 82 64 54 MISG N/A  
SCHOFIELD S* NOT AVBL  
WAIANAE VLY* NOT AVBL  
KUAOKALA* NOT AVBL  
HONOULIUULI* NOT AVBL  
MOKUOLOE IS* N/A N/A N/A N/A MISG N/A  
PALEHUA* NOT AVBL  
WAIAWA PHB* NOT AVBL  

 
 
HIZ012>013-210100-  
MOLOKAI-  
 
CITY SKY/WX TMP DP RH WIND PRES REMARKS
 
MOLOKAI AIRPT MOSUNNY 83 69 62 NE9G21 29.96F  
KALAUPAPA NOT AVBL  
MAKAPULAPAI* NOT AVBL  
MOLOKAI 1* NOT AVBL  
PUU ALII* NOT AVBL  

 
 
HIZ016-210100-  
KAHOOLAWE-  
 
CITY SKY/WX TMP DP RH WIND PRES REMARKS
 
KAHOOLAWE* NOT AVBL  
HAKIOAWA* NOT AVBL  
HONOKANAIA* N/A 87 69 54 E16G26 29.96F HX 91  
KANELOA* N/A 82 68 61 E16G26 30.06  
KEALIALALO* NOT AVBL  
LUA MAKIKA* NOT AVBL  

 
 
HIZ014>015-210100-  
LANAI-  
 
CITY SKY/WX TMP DP RH WIND PRES REMARKS
 
LANAI CITY CLOUDY 79 67 66 N9 30.01F  
LANAI 1* NOT AVBL  

 
 
HIZ017>028-210100-  
MAUI-  
 
CITY SKY/WX TMP DP RH WIND PRES REMARKS
 
KAHULUI PTSUNNY 85 69 58 NE18G25 29.95F  
KAPALUA-W MAUI PTSUNNY 81 68 65 NE18 29.97  
HANA AIRPORT MOSUNNY 82 72 69 CALM 30.00S  
HANA* NOT AVBL  
HALEAKALA SUMM N/A 61 12 15 S8 N/A  
MAALAEA BAY* NOT AVBL  
HALEAKALA* NOT AVBL  
KAUPO GAP* NOT AVBL  
KULA 1* N/A 59 58 96 W3G9 N/A  

 
 
HIZ023>026-210100-  
BIG ISLAND OF HAWAII COAST AND LOWER SLOPES-  
 
CITY SKY/WX TMP DP RH WIND PRES REMARKS
 
KAILUA KONA MOSUNNY 86 72 62 W12 29.92F HX 92  
HILO PTSUNNY 82 73 74 NE13 29.96F  
HONOKAA* NOT AVBL  
KAWAIHAE MWT* NOT AVBL  
KAWAIHAE* N/A 81 N/A N/A SW10 N/A  
SOUTH POINT* NOT AVBL  
UPOLU AIRPORT* NOT AVBL  
KAMUELA* MOCLDY 77 66 69 NE14 30.07S  
HAKALAU* N/A 66 56 71 SE7G17 N/A  
KALOKO-HONOKO* NOT AVBL  
PALI 2* N/A 81 66 61 SE15G25 N/A  
KEALAKOMO* N/A 88 73 62 E17G24 N/A HX 96  
KAUPULEHU* NOT AVBL  
KAPAPALA* N/A 82 68 62 SE3G14 N/A  
LOWER KAHUKU* NOT AVBL  
PUHE CS* NOT AVBL  
PUHO CS* NOT AVBL  
PTA KEAMUKU* N/A 72 68 88 NW7G15 N/A  
WAIKOLOA* NOT AVBL  

 
 
HIZ027>028-210100-  
BIG ISLAND OF HAWAII INTERIOR AND SUMMMITS-  
 
CITY SKY/WX TMP DP RH WIND PRES REMARKS
 
BRADSHAW FIELD N/A 67 57 68 W13G20 30.29F  
MK VISITOR CEN NOT AVBL  
MAUNA KEA* N/A 48 10 21 SE9 N/A  
MAUNA LOA* NOT AVBL  
MAUNA LOA 1* NOT AVBL  
PTA KIPUKA* N/A 72 57 60 N8G16 N/A  
PTA RANGE 17* N/A 68 57 68 NW13G20 N/A  
PTA WEST* N/A 70 63 78 NW10G18 N/A  
NENE CABIN* NOT AVBL  
AHUMOA* NOT AVBL  
PTA PORTABLE* NOT AVBL  
PUU MALI* NOT AVBL  

 
 
HIC003-210100-  
NORTHWEST ISLANDS-  
 
CITY SKY/WX TMP DP RH WIND PRES REMARKS
 
MIDWAY ISLAND MOSUNNY 90 72 55 SW9 30.01F HX 96  
MIDWAY NOS* NOT AVBL  
FRENCH FRIGATE NOT AVBL  

 
 
PHZ110>124-180-210100-  
BUOY REPORTS  
 
STATION/POSITION TIME TEMP WIND PRES WAVE SWELL
 
AIR SEA DIR/SP/G HT/PER HT/DIR  
(UTC) (F) (DEG/KT/KT) (MB) (FT/S) (FT/D)  
BUOY 51001 NOT AVBL  
BUOY 51101 NOT AVBL  
BUOY 51100 0000 78 79 90/ 14/ 16 1016.1F  
BUOY 51003 2300 80 82 80/ 10/ 12 1014.6F 5/ 7 5  
BUOY 51004 NOT AVBL  
BARBERS PT BUOY NOT AVBL  
WAIMEA BAY BUOY 0000 81 N/A 3/ 5  
KAILUA BAY BUOY 0000 81 N/A 4/ 9 2/ 80  
LANAI BUOY NOT AVBL  
BARBERS PT 2 0000 81 N/A 4/11 2/180  
PAUWELA MAUI 0000 80 N/A 4/ 8  
HILO NOT AVBL  
KANEOHE BAY BUOY 0000 80 N/A 4/ 8  
HANALEI KAUAI NOT AVBL  
KAHULUI HARBOR 0000 78 81 20/ 14/ 18 1014.5F  
HONOLULU HARBOR 0000 85 110/ 6/ 11 1014.5F  
KILO NALU NOT AVBL  
HILO HARBOR 0000 84 50/ 11/ 18 1014.0F  
MOKUOLOE 0000 82 1015.2F  
NAWILIWILI 0000 81 N/A  
WHOTS BUOY NOT AVBL  
BUOY 51028 NOT AVBL  

 
   
.....................KEY.....................................
 
 
SKY/WX - SKY CONDITIONS/PRESENT WEATHER  
TMP - TEMPERATURE IN FAHRENHEIT  
DWPT - DEWPOINT IN FAHRENHEIT  
RH - RELATIVE HUMIDITY IN PERCENT  
WIND - DIRECTION AND SPEED /MPH FOR ISLANDS...KTS FOR BUOYS/  
PRES - MEAN SEA LEVEL PRESSURE IN INCHES OF HG  
VSB - VISIBILITY IN MILES  
HX - HEAT INDEX  
WCI - WIND CHILL INDEX  
VRB - VARIABLE WIND DIRECTION  
N/A - NOT AVAILABLE  
 
CLICK HERE TO GO TO PREVIOUS BULLETINS.

The Nexlab HI Page Main Text Page